Time,TemperatureF,DewpointF,PressureIn,WindDirection,WindDirectionDegrees,WindSpeedMPH,WindSpeedGustMPH,Humidity,HourlyPrecipIn,Conditions,Clouds,dailyrainin,SoftwareType,DateUTC
2013-04-29 00:05:00,69.9,67.0,29.91,SE,126,2.0,4.0,91,0.00,,,0.00,weatherlink.com 1.10,2013-04-29 05:05:00,
2013-04-29 00:20:00,69.8,67.0,29.91,East,90,5.0,5.0,92,0.00,,,0.00,weatherlink.com 1.10,2013-04-29 05:20:00,
2013-04-29 00:35:00,69.6,67.0,29.91,East,96,1.0,3.0,92,0.00,,,0.00,weatherlink.com 1.10,2013-04-29 05:35:00,
2013-04-29 00:50:00,69.4,67.0,29.91,ESE,118,1.0,3.0,93,0.00,,,0.00,weatherlink.com 1.10,2013-04-29 05:50:00,
2013-04-29 01:05:00,69.2,67.0,29.91,ESE,117,1.0,4.0,93,0.00,,,0.00,weatherlink.com 1.10,2013-04-29 06:05:00,
2013-04-29 01:20:00,69.1,67.0,29.90,ESE,108,1.0,4.0,94,0.00,,,0.00,weatherlink.com 1.10,2013-04-29 06:20:00,
2013-04-29 01:35:00,68.9,67.0,29.90,ESE,119,3.0,4.0,94,0.00,,,0.00,weatherlink.com 1.10,2013-04-29 06:35:00,
2013-04-29 01:50:00,68.9,67.0,29.89,ESE,111,3.0,5.0,94,0.00,,,0.00,weatherlink.com 1.10,2013-04-29 06:50:00,
2013-04-29 02:05:00,68.8,67.0,29.89,ESE,120,0.0,4.0,95,0.00,,,0.00,weatherlink.com 1.10,2013-04-29 07:05:00,
2013-04-29 02:20:00,68.6,67.0,29.88,SE,138,2.0,4.0,95,0.00,,,0.00,weatherlink.com 1.10,2013-04-29 07:20:00,
2013-04-29 02:35:00,68.5,67.0,29.87,SSE,165,4.0,6.0,95,0.00,,,0.00,weatherlink.com 1.10,2013-04-29 07:35:00,
2013-04-29 02:50:00,68.5,67.0,29.87,SSE,160,2.0,6.0,95,0.00,,,0.00,weatherlink.com 1.10,2013-04-29 07:50:00,
2013-04-29 03:05:00,68.5,67.0,29.87,SSE,153,2.0,8.0,95,0.00,,,0.00,weatherlink.com 1.10,2013-04-29 08:05:00,
2013-04-29 03:20:00,68.5,67.0,29.87,SSE,149,3.0,8.0,95,0.00,,,0.00,weatherlink.com 1.10,2013-04-29 08:20:00,
2013-04-29 03:35:00,68.5,67.0,29.87,SSE,167,3.0,6.0,96,0.00,,,0.00,weatherlink.com 1.10,2013-04-29 08:35:00,
2013-04-29 03:50:00,68.6,68.0,29.87,SSE,158,1.0,4.0,96,0.00,,,0.00,weatherlink.com 1.10,2013-04-29 08:50:00,
2013-04-29 04:05:00,68.6,67.0,29.87,SSE,156,1.0,4.0,95,0.00,,,0.00,weatherlink.com 1.10,2013-04-29 09:05:00,
2013-04-29 04:20:00,68.7,67.0,29.86,SSE,156,1.0,2.0,95,0.00,,,0.00,weatherlink.com 1.10,2013-04-29 09:20:00,
2013-04-29 04:35:00,68.7,67.0,29.86,SE,138,0.0,4.0,95,0.00,,,0.00,weatherlink.com 1.10,2013-04-29 09:35:00,
2013-04-29 04:50:00,68.8,67.0,29.86,SSE,157,2.0,4.0,95,0.00,,,0.00,weatherlink.com 1.10,2013-04-29 09:50:00,
2013-04-29 05:05:00,68.8,67.0,29.87,SSW,207,1.0,3.0,95,0.00,,,0.00,weatherlink.com 1.10,2013-04-29 10:05:00,
2013-04-29 05:20:00,68.8,67.0,29.87,SSE,166,1.0,6.0,95,0.00,,,0.00,weatherlink.com 1.10,2013-04-29 10:20:00,
2013-04-29 05:35:00,68.8,67.0,29.87,SSE,152,2.0,4.0,95,0.00,,,0.00,weatherlink.com 1.10,2013-04-29 10:35:00,
2013-04-29 05:50:00,68.8,67.0,29.87,SW,228,1.0,3.0,95,0.00,,,0.00,weatherlink.com 1.10,2013-04-29 10:50:00,
2013-04-29 06:05:00,68.8,67.0,29.87,SSE,148,1.0,3.0,95,0.00,,,0.00,weatherlink.com 1.10,2013-04-29 11:05:00,
2013-04-29 06:20:00,68.6,67.0,29.87,SW,221,0.0,2.0,95,0.00,,,0.00,weatherlink.com 1.10,2013-04-29 11:20:00,
2013-04-29 06:35:00,68.2,67.0,29.87,SE,124,0.0,0.0,95,0.00,,,0.00,weatherlink.com 1.10,2013-04-29 11:35:00,
2013-04-29 06:50:00,67.9,67.0,29.88,SW,231,0.0,0.0,96,0.00,,,0.00,weatherlink.com 1.10,2013-04-29 11:50:00,
2013-04-29 07:05:00,68.2,67.0,29.88,SW,233,0.0,0.0,96,0.00,,,0.00,weatherlink.com 1.10,2013-04-29 12:05:00,
2013-04-29 07:20:00,68.4,67.0,29.88,SW,233,0.0,0.0,96,0.00,,,0.00,weatherlink.com 1.10,2013-04-29 12:20:00,
2013-04-29 07:35:00,68.4,67.0,29.89,SSW,205,0.0,0.0,96,0.00,,,0.00,weatherlink.com 1.10,2013-04-29 12:35:00,
2013-04-29 07:50:00,68.8,68.0,29.89,SSW,205,0.0,0.0,96,0.00,,,0.00,weatherlink.com 1.10,2013-04-29 12:50:00,
2013-04-29 08:05:00,69.7,69.0,29.89,SSE,155,0.0,0.0,96,0.00,,,0.00,weatherlink.com 1.10,2013-04-29 13:05:00,
2013-04-29 08:20:00,69.7,68.0,29.90,SSW,204,0.0,0.0,95,0.00,,,0.00,weatherlink.com 1.10,2013-04-29 13:20:00,
2013-04-29 08:35:00,69.6,68.0,29.90,WSW,247,2.0,3.0,94,0.00,,,0.00,weatherlink.com 1.10,2013-04-29 13:35:00,
2013-04-29 08:50:00,69.9,68.0,29.89,SW,228,2.0,2.0,94,0.00,,,0.00,weatherlink.com 1.10,2013-04-29 13:50:00,
2013-04-29 09:06:00,69.7,68.0,29.89,SSW,207,3.0,4.0,93,0.00,,,0.00,weatherlink.com 1.10,2013-04-29 14:06:00,
2013-04-29 09:21:00,70.9,68.0,29.89,SW,219,1.0,6.0,89,0.00,,,0.00,weatherlink.com 1.10,2013-04-29 14:21:00,
2013-04-29 09:36:00,73.2,69.0,29.89,ESE,120,0.0,2.0,86,0.00,,,0.00,weatherlink.com 1.10,2013-04-29 14:36:00,
2013-04-29 09:51:00,74.8,69.0,29.89,SSE,155,2.0,4.0,81,0.00,,,0.00,weatherlink.com 1.10,2013-04-29 14:51:00,
2013-04-29 10:06:00,76.3,67.0,29.89,SE,146,3.0,7.0,74,0.00,,,0.00,weatherlink.com 1.10,2013-04-29 15:06:00,
2013-04-29 10:21:00,76.1,69.0,29.89,WSW,242,2.0,5.0,78,0.00,,,0.00,weatherlink.com 1.10,2013-04-29 15:21:00,
2013-04-29 10:36:00,74.8,68.0,29.89,WSW,240,1.0,5.0,79,0.00,,,0.00,weatherlink.com 1.10,2013-04-29 15:36:00,
2013-04-29 10:51:00,75.4,67.0,29.89,SSE,160,4.0,5.0,76,0.00,,,0.00,weatherlink.com 1.10,2013-04-29 15:51:00,
2013-04-29 11:06:00,77.3,68.0,29.89,SE,142,2.0,4.0,73,0.00,,,0.00,weatherlink.com 1.10,2013-04-29 16:06:00,
2013-04-29 11:21:00,77.9,68.0,29.89,SE,142,3.0,4.0,72,0.00,,,0.00,weatherlink.com 1.10,2013-04-29 16:21:00,
2013-04-29 11:36:00,77.4,67.0,29.88,ESE,105,1.0,5.0,70,0.00,,,0.00,weatherlink.com 1.10,2013-04-29 16:36:00,
2013-04-29 11:51:00,77.6,68.0,29.88,SE,142,2.0,7.0,71,0.00,,,0.00,weatherlink.com 1.10,2013-04-29 16:51:00,
2013-04-29 12:06:00,79.0,67.0,29.88,SSE,166,3.0,5.0,67,0.00,,,0.00,weatherlink.com 1.10,2013-04-29 17:06:00,
2013-04-29 12:21:00,80.0,68.0,29.87,SE,146,3.0,6.0,66,0.00,,,0.00,weatherlink.com 1.10,2013-04-29 17:21:00,
2013-04-29 12:36:00,79.9,68.0,29.86,SSE,154,3.0,4.0,67,0.00,,,0.00,weatherlink.com 1.10,2013-04-29 17:36:00,
2013-04-29 12:51:00,80.4,67.0,29.86,SSE,167,2.0,7.0,63,0.00,,,0.00,weatherlink.com 1.10,2013-04-29 17:51:00,
2013-04-29 13:06:00,81.2,67.0,29.86,East,92,2.0,6.0,63,0.00,,,0.00,weatherlink.com 1.10,2013-04-29 18:06:00,
2013-04-29 13:21:00,81.5,66.0,29.85,East,82,4.0,9.0,59,0.00,,,0.00,weatherlink.com 1.10,2013-04-29 18:21:00,
2013-04-29 13:36:00,80.4,67.0,29.84,SSE,150,2.0,11.0,63,0.00,,,0.00,weatherlink.com 1.10,2013-04-29 18:36:00,
2013-04-29 13:51:00,80.9,67.0,29.84,SSE,167,4.0,5.0,63,0.00,,,0.00,weatherlink.com 1.10,2013-04-29 18:51:00,
2013-04-29 14:06:00,82.5,67.0,29.83,SE,131,3.0,7.0,60,0.00,,,0.00,weatherlink.com 1.10,2013-04-29 19:06:00,
2013-04-29 14:21:00,83.4,67.0,29.82,SSE,167,3.0,8.0,57,0.00,,,0.00,weatherlink.com 1.10,2013-04-29 19:21:00,
2013-04-29 14:36:00,83.1,67.0,29.81,SSE,163,1.0,6.0,58,0.00,,,0.00,weatherlink.com 1.10,2013-04-29 19:36:00,
2013-04-29 14:51:00,82.6,66.0,29.80,SE,140,5.0,8.0,57,0.00,,,0.00,weatherlink.com 1.10,2013-04-29 19:51:00,
2013-04-29 15:06:00,83.0,67.0,29.79,East,89,5.0,6.0,58,0.00,,,0.00,weatherlink.com 1.10,2013-04-29 20:06:00,
2013-04-29 15:21:00,82.7,66.0,29.79,SSE,155,2.0,7.0,57,0.00,,,0.00,weatherlink.com 1.10,2013-04-29 20:21:00,
2013-04-29 15:37:00,84.2,66.0,29.77,SW,229,5.0,10.0,54,0.00,,,0.00,weatherlink.com 1.10,2013-04-29 20:37:00,
2013-04-29 15:52:00,84.6,64.0,29.77,SE,133,3.0,7.0,51,0.00,,,0.00,weatherlink.com 1.10,2013-04-29 20:52:00,
2013-04-29 16:07:00,84.8,66.0,29.75,ESE,108,3.0,5.0,53,0.00,,,0.00,weatherlink.com 1.10,2013-04-29 21:07:00,
2013-04-29 16:22:00,85.1,65.0,29.74,SSW,204,1.0,5.0,51,0.00,,,0.00,weatherlink.com 1.10,2013-04-29 21:22:00,
2013-04-29 16:37:00,83.3,65.0,29.73,SSE,157,2.0,8.0,55,0.00,,,0.00,weatherlink.com 1.10,2013-04-29 21:37:00,
2013-04-29 16:52:00,83.2,66.0,29.73,South,175,7.0,11.0,56,0.00,,,0.00,weatherlink.com 1.10,2013-04-29 21:52:00,
2013-04-29 17:07:00,83.5,66.0,29.74,SE,135,6.0,11.0,56,0.00,,,0.00,weatherlink.com 1.10,2013-04-29 22:07:00,
2013-04-29 17:22:00,83.8,66.0,29.73,SE,142,2.0,9.0,56,0.00,,,0.00,weatherlink.com 1.10,2013-04-29 22:22:00,
2013-04-29 17:37:00,78.8,68.0,29.75,East,96,16.0,23.0,69,0.00,,,0.00,weatherlink.com 1.10,2013-04-29 22:37:00,
2013-04-29 17:52:00,73.9,67.0,29.75,SE,124,8.0,19.0,79,0.00,,,0.00,weatherlink.com 1.10,2013-04-29 22:52:00,
2013-04-29 18:07:00,74.8,68.0,29.76,ESE,109,8.0,19.0,78,0.00,,,0.00,weatherlink.com 1.10,2013-04-29 23:07:00,
2013-04-29 18:22:00,75.4,66.0,29.77,SE,130,10.0,21.0,73,0.00,,,0.00,weatherlink.com 1.10,2013-04-29 23:22:00,
2013-04-29 18:37:00,74.3,64.0,29.77,ESE,120,10.0,20.0,71,0.00,,,0.00,weatherlink.com 1.10,2013-04-29 23:37:00,
2013-04-29 18:52:00,72.2,65.0,29.78,SE,131,7.0,19.0,77,0.00,,,0.00,weatherlink.com 1.10,2013-04-29 23:52:00,
2013-04-29 19:07:00,71.1,65.0,29.80,ESE,105,8.0,18.0,81,0.00,,,0.00,weatherlink.com 1.10,2013-04-30 00:07:00,
2013-04-29 19:22:00,69.7,66.0,29.79,ENE,66,9.0,16.0,87,0.00,,,0.00,weatherlink.com 1.10,2013-04-30 00:22:00,
2013-04-29 19:37:00,68.5,65.0,29.79,SE,132,10.0,17.0,87,0.01,,,0.01,weatherlink.com 1.10,2013-04-30 00:37:00,
2013-04-29 19:52:00,68.3,64.0,29.79,SE,126,3.0,17.0,87,0.01,,,0.01,weatherlink.com 1.10,2013-04-30 00:52:00,
2013-04-29 20:07:00,68.0,65.0,29.79,East,89,7.0,14.0,89,0.01,,,0.01,weatherlink.com 1.10,2013-04-30 01:07:00,
2013-04-29 20:22:00,67.8,65.0,29.78,ESE,120,6.0,17.0,90,0.00,,,0.01,weatherlink.com 1.10,2013-04-30 01:22:00,
2013-04-29 20:37:00,67.8,65.0,29.80,SSE,163,7.0,10.0,91,0.00,,,0.01,weatherlink.com 1.10,2013-04-30 01:37:00,
2013-04-29 20:52:00,67.6,65.0,29.79,SSE,158,3.0,10.0,91,0.00,,,0.01,weatherlink.com 1.10,2013-04-30 01:52:00,
2013-04-29 21:07:00,67.7,65.0,29.81,East,100,3.0,6.0,91,0.00,,,0.01,weatherlink.com 1.10,2013-04-30 02:07:00,
2013-04-29 21:22:00,67.7,65.0,29.82,East,84,3.0,7.0,91,0.00,,,0.01,weatherlink.com 1.10,2013-04-30 02:22:00,
2013-04-29 21:37:00,67.6,65.0,29.83,ENE,73,2.0,4.0,91,0.00,,,0.01,weatherlink.com 1.10,2013-04-30 02:37:00,
2013-04-29 21:52:00,67.2,65.0,29.84,NE,37,3.0,4.0,92,0.00,,,0.01,weatherlink.com 1.10,2013-04-30 02:52:00,
2013-04-29 22:07:00,67.0,65.0,29.84,NE,49,4.0,5.0,92,0.00,,,0.01,weatherlink.com 1.10,2013-04-30 03:07:00,
2013-04-29 22:22:00,66.7,64.0,29.85,NNE,25,4.0,6.0,91,0.00,,,0.01,weatherlink.com 1.10,2013-04-30 03:22:00,
2013-04-29 22:37:00,66.6,64.0,29.84,NNW,345,4.0,5.0,92,0.00,,,0.01,weatherlink.com 1.10,2013-04-30 03:37:00,
2013-04-29 22:52:00,66.4,64.0,29.84,NNW,335,1.0,4.0,92,0.00,,,0.01,weatherlink.com 1.10,2013-04-30 03:52:00,
2013-04-29 23:07:00,66.0,64.0,29.83,WNW,289,1.0,1.0,92,0.00,,,0.01,weatherlink.com 1.10,2013-04-30 04:07:00,
2013-04-29 23:22:00,65.6,64.0,29.83,West,269,1.0,2.0,94,0.00,,,0.01,weatherlink.com 1.10,2013-04-30 04:22:00,
2013-04-29 23:37:00,65.4,64.0,29.82,WSW,241,5.0,5.0,94,0.00,,,0.01,weatherlink.com 1.10,2013-04-30 04:37:00,
2013-04-29 23:52:00,65.7,64.0,29.80,SW,222,4.0,7.0,94,0.00,,,0.01,weatherlink.com 1.10,2013-04-30 04:52:00,